Location: Feura Bush
(42.5779°N, 73.8787°W)
Time: 01:51:26
(UTC+00:00)

ACS3 Solar Sail - Pass Details

Date: 18 October 2024
Orbit: 961 x 1022 km, 97.5° (Epoch: 03 November)

Event Time Altitude Azimuth Distance (km) Brightness Sun altitude
Exits shadow 02:27:11 16° 273° (W) 2,431 4.2 -46.1°
Maximum altitude 02:27:18 16° 274° (W) 2,431 4.2 -46.1°
Drops below altitude 10° 02:30:57 10° 309° (NW) 2,830 4.8 -46.7°
Sets 02:34:42 0° 331° (NNW) 3,785 5.5 -47.2°
